Zurück zum Katalog

STARLINK-3853

AktivKommunikationVLEO
NORAD 52359·PAYLOAD·🇺🇸 United States

Gestartet Apr 29, 2022 von Cape Canaveral Space Force Station

Loading…

Nächste Überflüge (nächste 24 Stunden)

TLE

AktuellSource: CelesTrak SupGP

Epoche: Sep 14, 2026, 21:44 UTC

1 52359C 22045AE  26257.90604167  .00048816  00000+0  15700-2 0  2570
2 52359  53.1604  59.8386 0001251  79.7520 238.4003 15.31673521    18

Verfolge STARLINK-3853 in Echtzeit mit AllMySat

Download on the App Store